Eelde, Netherlands

12:18 AM CEST on September 28, 2016 (GMT +0200)
Eelde

Weather History for EHGG - December, 2012

Change the Weather History Date:

Saturday, December 8, 2012

  Actual Average Record
Temperature  
Mean Temperature 23 °F -  
Max Temperature 33 °F 42 °F 55 °F (2000)
Min Temperature 13 °F 33 °F 13 °F (2012)
Degree Days  
Heating Degree Days 42    
Moisture  
Dew Point 21 °F    
Average Humidity 89    
Maximum Humidity 100    
Minimum Humidity 79    
Precipitation  
Precipitation 0.02 in - - ()
Sea Level Pressure  
Sea Level Pressure 30.11 in    
Wind  
Wind Speed 4 mph ()    
Max Wind Speed 14 mph    
Max Gust Speed -    
Visibility 4.4 miles    
Events Fog , Rain    
Averages and records for this station are not official NWS values.
T = Trace of Precipitation, MM = Missing Value Source: Averaged Metar Reports

Daily Weather History Graph

Daily Weather History Graph

Search for Another Location

Airport or City:

Trip Planner

Search our weather history database for the weather conditions in past years. The results will help you decide how hot, cold, wet, or windy it might be!

Date:

Astronomy

Dec. 08, 2012 Rise Set
Actual Time 8:34 AM CET 4:16 PM CET
Civil Twilight 7:52 AM CET 4:58 PM CET
Nautical Twilight 7:07 AM CET 5:43 PM CET
Astronomical Twilight 6:25 AM CET 6:25 PM CET
Moon 2:01 AM CET (12/8) 1:13 PM CET (12/8)
Length of Visible Light 9h 06m
Length of Day
7h 42m
Waning Crescent, 31% of the Moon is Illuminated
Dec 8
Waning Crescent
Dec 13
New
Dec 20
First Quarter
Dec 28
Full
Jan 5
Last Quarter

Hourly Weather History & Observations

Time (CET) Temp. Windchill Dew Point Humidity Pressure Visibility Wind Dir Wind Speed Gust Speed Precip Events Conditions
12:25 AM 19.4 °F 11.5 °F 15.8 °F 86% 29.92 in 6.2 mi ENE 5.8 mph - N/A   Unknown
12:55 AM 19.4 °F 14.3 °F 17.6 °F 93% 29.95 in 5.0 mi ENE 3.5 mph - N/A   Unknown
1:00 AM 20 °F - 18 °F 88% 29.96 in 5 mi ENE 4.5 mph - -   Mist
1:25 AM 19.4 °F 12.8 °F 17.6 °F 93% 29.95 in 3.7 mi ENE 4.6 mph - N/A   Unknown
1:55 AM 17.6 °F 12.3 °F 17.6 °F 100% 29.98 in 1.4 mi NE 3.5 mph - N/A   Mist
2:25 AM 19.4 °F 14.3 °F 17.6 °F 93% 29.98 in 0.5 mi NE 3.5 mph - N/A Fog Light Freezing Fog
2:55 AM 17.6 °F 12.3 °F 14.0 °F 86% 29.98 in 1.6 mi ENE 3.5 mph - N/A   Mist
3:25 AM 15.8 °F - 14.0 °F 93% 30.01 in 0.7 mi East 1.2 mph - N/A   Mist
3:55 AM 15.8 °F - 14.0 °F 93% 30.01 in 0.7 mi ENE 2.3 mph - N/A   Mist
4:00 AM 16 °F - 14 °F 89% 30.02 in 0 mi NE 2.2 mph - - Fog Fog
4:25 AM 15.8 °F - 12.2 °F 86% 30.04 in 0.6 mi NNW 1.2 mph - N/A Fog Light Freezing Fog
4:55 AM 15.8 °F 10.2 °F 14.0 °F 93% 30.04 in - NNW 3.5 mph - N/A   Mist
5:25 AM 15.8 °F - 12.2 °F 86% 30.04 in 2.8 mi NNW 2.3 mph - N/A   Mist
5:55 AM 15.8 °F - 12.2 °F 86% 30.06 in 2.8 mi NNW 2.3 mph - N/A   Mist
6:25 AM 15.8 °F - 14.0 °F 93% 30.06 in 2.8 mi Calm Calm - N/A   Mist
6:55 AM 15.8 °F - 14.0 °F 93% 30.09 in 3.1 mi Calm Calm - N/A   Mist
7:00 AM 17 °F - 15 °F 87% 30.10 in 4 mi Calm Calm - -   Mist
7:25 AM 15.8 °F - 14.0 °F 93% 30.09 in 5.0 mi South 2.3 mph - N/A   Unknown
7:55 AM 15.8 °F 10.2 °F 14.0 °F 93% 30.09 in 6.2 mi SW 3.5 mph - N/A   Unknown
8:25 AM 14.0 °F 8.2 °F 10.4 °F 86% 30.09 in 4.3 mi SW 3.5 mph - N/A   Unknown
8:55 AM 14.0 °F 8.2 °F 12.2 °F 93% 30.12 in 3.7 mi SSW 3.5 mph - N/A   Unknown
9:25 AM 15.8 °F - 14.0 °F 93% 30.12 in - Variable 2.3 mph - N/A   Mist
9:55 AM 15.8 °F 10.2 °F 14.0 °F 93% 30.12 in 3.1 mi SW 3.5 mph - N/A   Mist
10:00 AM 17 °F - 15 °F 86% 30.16 in 3 mi West 2.2 mph - -   Mist
10:25 AM 17.6 °F - 14.0 °F 86% 30.15 in - WSW 2.3 mph - N/A   Mist
10:55 AM 19.4 °F 12.8 °F 17.6 °F 93% 30.15 in 3.7 mi WSW 4.6 mph - N/A   Unknown
11:25 AM 21.2 °F 14.9 °F 19.4 °F 93% 30.18 in 4.3 mi SW 4.6 mph - N/A   Unknown
11:55 AM 24.8 °F 19.1 °F 23.0 °F 93% 30.18 in 5.6 mi West 4.6 mph - N/A   Unknown
12:25 PM 24.8 °F 19.1 °F 23.0 °F 93% 30.15 in 5.0 mi SW 4.6 mph - N/A   Unknown
12:55 PM 26.6 °F 20.0 °F 24.8 °F 93% 30.15 in 5.0 mi WSW 5.8 mph - N/A   Unknown
1:00 PM 27 °F - 26 °F 92% 30.17 in 5 mi WSW 4.5 mph - -   Mist
1:25 PM 26.6 °F 20.0 °F 24.8 °F 93% 30.15 in 6.2 mi SW 5.8 mph - N/A   Unknown
1:55 PM 24.8 °F 17.9 °F 21.2 °F 86% 30.15 in 6.2 mi SW 5.8 mph - N/A   Unknown
2:25 PM 24.8 °F 20.5 °F 21.2 °F 86% 30.15 in 6.2 mi WSW 3.5 mph - N/A   Unknown
2:55 PM 28.4 °F 24.6 °F 23.0 °F 80% 30.18 in 6.2 mi WSW 3.5 mph - N/A   Unknown
3:25 PM 28.4 °F 22.2 °F 23.0 °F 80% 30.18 in 6.2 mi WSW 5.8 mph - N/A   Unknown
3:55 PM 26.6 °F 19.1 °F 23.0 °F 86% 30.18 in 6.2 mi SW 6.9 mph - N/A   Unknown
4:00 PM 28 °F - 24 °F 79% 30.19 in 9 mi SW 6.7 mph - -   Overcast
4:25 PM 28.4 °F 22.2 °F 24.8 °F 86% 30.18 in 6.2 mi SW 5.8 mph - N/A   Unknown
4:55 PM 30.2 °F 22.6 °F 26.6 °F 86% 30.18 in 6.2 mi SW 8.1 mph - N/A   Unknown
5:25 PM 28.4 °F 20.4 °F 26.6 °F 93% 30.18 in 6.2 mi SSW 8.1 mph - N/A   Unknown
5:55 PM 30.2 °F 21.9 °F 26.6 °F 86% 30.18 in 5.6 mi SSW 9.2 mph - N/A   Unknown
6:25 PM 30.2 °F 21.9 °F 26.6 °F 86% 30.18 in 5.6 mi SW 9.2 mph - N/A   Unknown
6:55 PM 30.2 °F 21.3 °F 26.6 °F 86% 30.18 in 5.0 mi SSW 10.4 mph - N/A   Partly Cloudy
7:00 PM 30 °F - 27 °F 83% 30.19 in 5 mi SSW 8.9 mph - -   Mist
7:25 PM 30.2 °F 21.3 °F 26.6 °F 86% 30.15 in 5.0 mi SSW 10.4 mph - N/A   Unknown
7:55 PM 30.2 °F 21.9 °F 26.6 °F 86% 30.15 in 5.0 mi SSW 9.2 mph - N/A   Scattered Clouds
8:25 PM 30.2 °F 21.3 °F 28.4 °F 93% 30.15 in 5.0 mi SSW 10.4 mph - N/A   Scattered Clouds
8:55 PM 32.0 °F 23.0 °F 28.4 °F 87% 30.15 in 5.6 mi SSW 11.5 mph - N/A   Overcast
9:25 PM 32.0 °F 22.5 °F 28.4 °F 87% 30.12 in 5.0 mi SSW 12.7 mph - N/A   Mostly Cloudy
9:55 PM 32.0 °F 23.6 °F 30.2 °F 93% 30.12 in 5.6 mi SSW 10.4 mph - N/A   Overcast
10:00 PM 33 °F - 30 °F 82% 30.13 in 6 mi SSW 11.2 mph - -   Light Freezing Rain
10:25 PM 33.8 °F 25.3 °F 30.2 °F 87% 30.12 in 5.0 mi SSW 11.5 mph - N/A   Light Drizzle
10:55 PM 33.8 °F 24.8 °F 32.0 °F 93% 30.09 in 4.3 mi SSW 12.7 mph - N/A   Light Drizzle
11:25 PM 33.8 °F 24.3 °F 32.0 °F 93% 30.09 in 3.1 mi SSW 13.8 mph - N/A   Light Drizzle
11:55 PM 33.8 °F 24.8 °F 32.0 °F 93% 30.09 in 2.5 mi SW 12.7 mph - N/A Rain Light Rain